Weather History for KLFK - March, 2013

Change the Weather History Date:

Wednesday, March 6, 2013

  Actual Average Record
Temperature  
Mean Temperature 49 °F 57 °F  
Max Temperature 68 °F 69 °F 92 °F (1929)
Min Temperature 30 °F 46 °F 23 °F (1989)
Degree Days  
Heating Degree Days 16 9  
Month to date heating degree days 83 56  
Since 1 July heating degree days 1349 1690  
Cooling Degree Days 0 1  
Month to date cooling degree days 0 6  
Year to date cooling degree days 22 25  
Moisture  
Dew Point 24 °F    
Average Humidity 46    
Maximum Humidity 78    
Minimum Humidity 13    
Precipitation  
Precipitation 0.00 in 0.13 in 1.75 in (1933)
Month to date precipitation T 0.80  
Year to date precipitation 6.81 8.85  
Snow  
Snow 0.00 in - - ()
Month to date snowfall 0.0  
Since 1 July snowfall 0.0  
Snow Depth 0.00 in    
Sea Level Pressure  
Sea Level Pressure 30.33 in    
Wind  
Wind Speed 3 mph (NNW)    
Max Wind Speed 13 mph    
Max Gust Speed 17 mph    
Visibility 10 miles    
Events      
T = Trace of Precipitation, MM = Missing Value Source: NWS Daily Summary

Daily Weather History Graph

Daily Weather History Graph

Search for Another Location

Airport or City:

Trip Planner

Search our weather history database for the weather conditions in past years. The results will help you decide how hot, cold, wet, or windy it might be!

Date:

Astronomy

Mar. 06, 2013 Rise Set
Actual Time 6:39 AM CST 6:21 PM CST
Civil Twilight 6:15 AM CST 6:45 PM CST
Nautical Twilight 5:47 AM CST 7:13 PM CST
Astronomical Twilight 5:19 AM CST 7:41 PM CST
Moon 2:33 AM CST (3/6) 1:19 PM CST (3/6)
Length of Visible Light 12h 29m
Length of Day
11h 41m
Waning Crescent, 29% of the Moon is Illuminated
Mar 6
Waning Crescent
Mar 11
New
Mar 19
First Quarter
Mar 27
Full
Apr 2
Last Quarter

Hourly Weather History & Observations

Time (CST) Temp. Windchill Dew Point Humidity Pressure Visibility Wind Dir Wind Speed Gust Speed Precip Events Conditions
12:53 AM 44.1 °F 42.5 °F 23.0 °F 43% 30.31 in 10.0 mi NNW 3.5 mph - N/A   Clear
1:53 AM 43.0 °F 40.3 °F 21.9 °F 43% 30.33 in 10.0 mi North 4.6 mph - N/A   Clear
2:53 AM 43.0 °F 40.3 °F 21.9 °F 43% 30.33 in 10.0 mi NNW 4.6 mph - N/A   Clear
3:53 AM 37.0 °F 34.5 °F 24.1 °F 59% 30.33 in 10.0 mi NNW 3.5 mph - N/A   Clear
4:53 AM 33.1 °F - 24.1 °F 70% 30.35 in 10.0 mi Calm Calm - N/A   Clear
5:53 AM 37.9 °F 35.5 °F 23.0 °F 55% 30.37 in 10.0 mi NNW 3.5 mph - N/A   Clear
6:53 AM 30.0 °F 26.5 °F 24.1 °F 79% 30.40 in 10.0 mi WSW 3.5 mph - N/A   Clear
7:53 AM 39.0 °F - 27.0 °F 62% 30.42 in 10.0 mi Calm Calm - N/A   Clear
8:53 AM 46.9 °F - 24.1 °F 41% 30.43 in 10.0 mi NNE 8.1 mph - N/A   Clear
9:53 AM 51.1 °F - 24.1 °F 35% 30.43 in 10.0 mi North 5.8 mph - N/A   Clear
10:53 AM 54.0 °F - 21.9 °F 29% 30.42 in 10.0 mi Variable 3.5 mph - N/A   Clear
11:53 AM 57.0 °F - 21.0 °F 25% 30.40 in 10.0 mi Calm Calm - N/A   Clear
12:53 PM 61.0 °F - 19.9 °F 21% 30.36 in 10.0 mi Variable 4.6 mph - N/A   Clear
1:53 PM 64.0 °F - 19.9 °F 18% 30.32 in 10.0 mi NW 5.8 mph - N/A   Clear
2:53 PM 64.9 °F - 16.0 °F 15% 30.29 in 10.0 mi WNW 8.1 mph - N/A   Clear
3:53 PM 66.0 °F - 16.0 °F 15% 30.28 in 10.0 mi Variable 5.8 mph - N/A   Clear
4:53 PM 64.0 °F - 14.0 °F 14% 30.25 in 10.0 mi NNW 6.9 mph - N/A   Clear
5:53 PM 62.1 °F - 19.0 °F 19% 30.25 in 10.0 mi Calm Calm - N/A   Clear
6:53 PM 54.0 °F - 32.0 °F 43% 30.25 in 10.0 mi Calm Calm - N/A   Clear
7:53 PM 48.9 °F - 32.0 °F 52% 30.26 in 9.0 mi Calm Calm - N/A   Clear
8:53 PM 44.1 °F - 35.1 °F 71% 30.26 in 10.0 mi Calm Calm - N/A   Clear
9:53 PM 44.1 °F - 34.0 °F 68% 30.27 in 10.0 mi Calm Calm - N/A   Clear
10:53 PM 43.0 °F - 32.0 °F 65% 30.26 in 10.0 mi Calm Calm - N/A   Clear
11:53 PM 41.0 °F - 33.1 °F 73% 30.25 in 10.0 mi Calm Calm - N/A   Clear